sat.trackr.live / text

‹ back to catalog

STARLINK-3069

NORAD 49176 · 2021-082AY

PAYLOAD ACTIVE UNKNOWN

§ Identity

Operator
Country
US
Launch date
2021-09-14
Launch site
AFWTR
Launch vehicle
Mass (kg)
RCS (m²)

Purposes: comms

External: N2YO · Heavens-Above · Gunter

§ Orbital elements

Epoch: 2026-05-25T03:29:15.279072Z

Period
96.11 min
Inclination
70.0007°
Eccentricity
0.0002790
Mean motion
14.98329908 rev/d
Perigee alt
570.1 km
Apogee alt
574.0 km
Semi-major
6,950.2 km
B*
2.2098e-5
RAAN
61.6813°
Arg perigee
268.4745°
Mean anomaly
91.6094°
Rev number
25,841

§ Raw data

STARLINK-30691 49176U 21082AY  26145.14531573  .00000171  00000+0  22098-4 0  99902 49176  70.0007  61.6813 0002790 268.4745  91.6094 14.98329908258414

JSON: /api/v1/satellites/49176 · /tle

For live sub-satellite position, see the globe view (requires WebGL).

§ Visibility from observer

Set your observer location to see the next 7 days of passes ≥ 10°. The values pass through the URL so the page stays shareable.

No JS? Fill the form by hand. The geolocation button needs JavaScript.